TimeEST,TemperatureF,Dew PointF,Humidity,Sea Level PressureIn,VisibilityMPH,Wind Direction,Wind SpeedMPH,Gust SpeedMPH,PrecipitationIn,Events,Conditions,WindDirDegrees,DateUTC
12:56 AM,41.0,18.0,40,29.99,10.0,WNW,12.7,-,N/A,,Clear,290,2012-12-22 05:56:00
1:56 AM,39.9,18.0,41,30.01,10.0,WNW,12.7,-,N/A,,Clear,290,2012-12-22 06:56:00
2:56 AM,39.9,17.1,40,30.03,10.0,WNW,12.7,23.0,N/A,,Clear,300,2012-12-22 07:56:00
3:56 AM,37.9,17.1,43,30.04,10.0,WNW,11.5,-,N/A,,Clear,290,2012-12-22 08:56:00
4:56 AM,37.0,17.1,44,30.06,10.0,West,9.2,-,N/A,,Clear,270,2012-12-22 09:56:00
5:56 AM,36.0,17.1,46,30.09,10.0,WNW,12.7,-,N/A,,Clear,290,2012-12-22 10:56:00
6:56 AM,36.0,17.1,46,30.12,10.0,WNW,9.2,18.4,N/A,,Clear,290,2012-12-22 11:56:00
7:56 AM,36.0,17.1,46,30.15,10.0,West,10.4,-,N/A,,Clear,280,2012-12-22 12:56:00
8:56 AM,39.0,17.1,41,30.18,10.0,WNW,10.4,-,N/A,,Clear,290,2012-12-22 13:56:00
9:56 AM,43.0,17.1,35,30.19,10.0,NW,8.1,-,N/A,,Clear,310,2012-12-22 14:56:00
10:56 AM,48.0,17.1,29,30.18,10.0,NW,9.2,-,N/A,,Clear,310,2012-12-22 15:56:00
11:56 AM,50.0,16.0,26,30.17,10.0,WNW,5.8,-,N/A,,Clear,300,2012-12-22 16:56:00
12:56 PM,52.0,16.0,24,30.14,10.0,West,8.1,-,N/A,,Clear,280,2012-12-22 17:56:00
1:56 PM,55.9,14.0,19,30.12,10.0,WNW,6.9,-,N/A,,Clear,300,2012-12-22 18:56:00
2:56 PM,57.9,14.0,18,30.11,10.0,West,8.1,-,N/A,,Clear,280,2012-12-22 19:56:00
3:56 PM,57.0,16.0,20,30.13,10.0,WNW,9.2,-,N/A,,Clear,290,2012-12-22 20:56:00
4:56 PM,54.0,18.0,24,30.14,10.0,West,5.8,-,N/A,,Clear,280,2012-12-22 21:56:00
5:56 PM,48.0,21.9,36,30.15,10.0,SW,3.5,-,N/A,,Clear,220,2012-12-22 22:56:00
6:56 PM,45.0,24.1,44,30.17,10.0,West,4.6,-,N/A,,Clear,260,2012-12-22 23:56:00
7:56 PM,44.1,24.1,45,30.17,10.0,WSW,4.6,-,N/A,,Clear,250,2012-12-23 00:56:00
8:56 PM,44.1,24.1,45,30.18,10.0,WSW,5.8,-,N/A,,Clear,240,2012-12-23 01:56:00
9:56 PM,42.1,24.1,49,30.19,10.0,West,5.8,-,N/A,,Clear,260,2012-12-23 02:56:00
10:56 PM,41.0,24.1,51,30.18,10.0,WSW,6.9,-,N/A,,Clear,240,2012-12-23 03:56:00
11:56 PM,39.9,24.1,53,30.17,10.0,West,5.8,-,N/A,,Clear,260,2012-12-23 04:56:00